Home   Weather   Aspen   Past weeks

Flag for USA Past Weather in Aspen, Colorado, USA — Yesterday and Last 2 Weeks

Now
59 °F

Clear.


Feels Like: 59 °F
Forecast: 50 / 76 °F
Wind: No wind

Location: Aspen-Pitkin County Airport

Current Time: Aug 21, 2017 at 2:30:57 am

Latest Report: Aug 21, 2017 at 12:53 am


Visibility: 10 mi

Pressure: 29.90 "Hg (22.46 "Hg at 2411m altitude)

Humidity: 46%

Dew Point: 38 °F

Location of AspenLocation

Past Weather in Aspen — Graph

°F

Aspen Temperature Yesterday

Maximum temperature yesterday: 82 °F (at 1:53 pm)
Minimum temperature yesterday: 45 °F (at 6:53 am)
Average temperature yesterday: 65 °F

High & Low Weather Summary for the Past Weeks

 TemperatureHumidityPressure
High82 °F (Aug 20, 1:53 pm)96% (Aug 7, 10:53 pm)30.45 "Hg (Aug 7, 10:53 pm)
Low43 °F (Aug 17, 6:53 am)14% (Aug 20, 1:53 pm)29.69 "Hg (Aug 14, 11:53 pm)
Average61 °F53%29.98 "Hg
* Reported Aug 6 12:53 am — Aug 21 12:53 am, Aspen. Weather by CustomWeather, © 2017

Note: Actual official high and low records may vary slightly from our data, if they occured in-between our weather recording intervals... More about our weather records

Advertising

Aspen Weather History for the Previous 24 Hours

Scroll right to see more
 ConditionsComfort  
Time TempWeatherWind HumidityBarometerVisibility
12:53 am
Mon, Aug 21
59 °FClear.No wind46%29.90 "Hg10 mi
11:53 pm
Sun, Aug 20
61 °FPassing clouds.6 mph41%29.88 "Hg10 mi
10:53 pm61 °FPassing clouds.8 mph42%29.89 "Hg10 mi
9:53 pm61 °FClear.7 mph44%29.91 "Hg10 mi
8:53 pm69 °FClear.8 mph29%29.88 "Hg10 mi
7:53 pm71 °FPartly sunny.10 mph27%29.88 "Hg10 mi
6:53 pm73 °FSunny.3 mph28%29.89 "Hg10 mi
5:53 pm78 °FSunny.10 mph17%29.86 "Hg10 mi
4:53 pm79 °FSunny.6 mph15%29.85 "Hg10 mi
3:53 pm80 °FSunny.5 mph15%29.85 "Hg10 mi
2:53 pm79 °FScattered clouds.7 mph16%29.86 "Hg10 mi
1:53 pm82 °FSunny.14 mph14%29.85 "Hg10 mi
12:53 pm80 °FScattered clouds.12 mph15%29.88 "Hg10 mi
11:53 am80 °FSunny.9 mph17%29.89 "Hg10 mi
10:53 am74 °FSunny.6 mph24%29.93 "Hg10 mi
9:53 am69 °FSunny.5 mph30%29.95 "Hg10 mi
8:53 am62 °FSunny.No wind38%29.98 "Hg10 mi
7:53 am55 °FSunny.3 mph47%29.96 "Hg10 mi
6:53 am45 °FSunny.7 mph68%29.99 "Hg10 mi
5:53 am46 °FClear.No wind63%29.96 "Hg10 mi
4:53 am47 °FClear.6 mph64%29.94 "Hg10 mi
3:53 am50 °FClear.8 mph54%29.94 "Hg10 mi
2:53 am52 °FClear.8 mph50%29.93 "Hg10 mi
Weather by CustomWeather, © 2017

See weather overviewHow to use our weather pages